Weather History for KTVL - November, 2013

Change the Weather History Date:

Tuesday, November 5, 2013

  Actual Average Record
Temperature  
Mean Temperature 38 °F 40 °F  
Max Temperature 56 °F 55 °F 68 °F (2010)
Min Temperature 20 °F 25 °F 13 °F (2011)
Degree Days  
Heating Degree Days 27 25  
Month to date heating degree days 122 123  
Since 1 July heating degree days 1203 1355  
Cooling Degree Days 0 0  
Month to date cooling degree days 0 0  
Year to date cooling degree days 104 31  
Moisture  
Dew Point 16 °F    
Average Humidity 44    
Maximum Humidity 69    
Minimum Humidity 18    
Precipitation  
Precipitation 0.00 in - 1.08 in (1970)
Month to date precipitation T  
Year to date precipitation 7.56  
Sea Level Pressure  
Sea Level Pressure 30.24 in    
Wind  
Wind Speed 1 mph (SE)    
Max Wind Speed 9 mph    
Max Gust Speed 14 mph    
Visibility 10 miles    
Events      
T = Trace of Precipitation, MM = Missing Value Source: NWS Daily Summary

Daily Weather History Graph

Daily Weather History Graph

Search for Another Location

Airport or City:

Trip Planner

Search our weather history database for the weather conditions in past years. The results will help you decide how hot, cold, wet, or windy it might be!

Date:

Astronomy

Nov. 05, 2013 Rise Set
Actual Time 6:31 AM PST 4:54 PM PST
Civil Twilight 6:04 AM PST 5:22 PM PST
Nautical Twilight 5:32 AM PST 5:54 PM PST
Astronomical Twilight 5:01 AM PST 6:25 PM PST
Moon 8:51 AM PST (11/5) 7:02 PM PST (11/5)
Length of Visible Light 11h 18m
Length of Day
10h 22m
Waxing Crescent, 7% of the Moon is Illuminated
Nov 5
Waxing Crescent
Nov 9
First Quarter
Nov 17
Full
Nov 25
Last Quarter
Dec 2
New

Hourly Weather History & Observations

Time (PST) Temp. Windchill Dew Point Humidity Pressure Visibility Wind Dir Wind Speed Gust Speed Precip Events Conditions
12:53 AM 26.1 °F - 14.0 °F 60% 30.15 in 10.0 mi Calm Calm - N/A   Clear
1:53 AM 25.0 °F - 14.0 °F 63% 30.13 in 10.0 mi Calm Calm - N/A   Clear
2:53 AM 23.0 °F - 12.9 °F 65% 30.16 in 10.0 mi Calm Calm - N/A   Clear
3:53 AM 23.0 °F - 12.9 °F 65% 30.19 in 10.0 mi Calm Calm - N/A   Clear
4:53 AM 21.9 °F - 12.9 °F 68% 30.22 in 10.0 mi Calm Calm - N/A   Clear
5:53 AM 21.0 °F - 12.0 °F 68% 30.24 in 10.0 mi Calm Calm - N/A   Clear
6:53 AM 21.0 °F 16.2 °F 12.0 °F 68% 30.29 in 10.0 mi SSW 3.5 mph - N/A   Clear
7:53 AM 25.0 °F - 14.0 °F 63% 30.29 in 10.0 mi Calm Calm - N/A   Clear
8:53 AM 36.0 °F - 14.0 °F 41% 30.25 in 10.0 mi Calm Calm - N/A   Clear
9:53 AM 45.0 °F - 12.9 °F 27% 30.23 in 10.0 mi Calm Calm - N/A   Clear
10:53 AM 48.9 °F - 12.9 °F 24% 30.21 in 10.0 mi East 4.6 mph - N/A   Clear
11:53 AM 51.1 °F - 15.1 °F 24% 30.21 in 10.0 mi Variable 5.8 mph - N/A   Clear
12:53 PM 52.0 °F - 15.1 °F 23% 30.20 in 10.0 mi NNE 5.8 mph - N/A   Clear
1:53 PM 54.0 °F - 15.1 °F 22% 30.19 in 10.0 mi Calm Calm - N/A   Clear
2:53 PM 55.0 °F - 12.9 °F 19% 30.19 in 10.0 mi NE 4.6 mph - N/A   Clear
3:53 PM 50.0 °F - 17.1 °F 27% 30.21 in 10.0 mi Calm Calm - N/A   Clear
4:53 PM 43.0 °F - 19.0 °F 38% 30.25 in 10.0 mi Calm Calm - N/A   Clear
5:53 PM 39.0 °F - 19.9 °F 46% 30.29 in 10.0 mi Calm Calm - N/A   Clear
6:53 PM 35.1 °F - 19.9 °F 54% 30.34 in 10.0 mi Calm Calm - N/A   Clear
7:53 PM 32.0 °F - 19.9 °F 61% 30.35 in 10.0 mi Calm Calm - N/A   Clear
8:53 PM 30.0 °F 26.5 °F 19.0 °F 64% 30.33 in 10.0 mi SSW 3.5 mph - N/A   Clear
9:53 PM 28.9 °F 25.2 °F 19.0 °F 67% 30.33 in 10.0 mi South 3.5 mph - N/A   Clear
10:53 PM 30.0 °F - 19.0 °F 64% 30.31 in 10.0 mi Calm Calm - N/A   Clear
11:53 PM 28.9 °F - 19.0 °F 67% 30.32 in 10.0 mi Calm Calm - N/A   Clear